星链-36286(STARLINK-36286)

导读

STARLINK-36286(NORAD编号69162)是美国太空探索技术公司(SpaceX)星链(Starlink)互联网星座中的一颗低轨卫星。星链项目旨在通过大规模低轨卫星星座,为全球提供低成本、高性能的天基互联网接入服务。 该卫星运行在近地轨道,参与星座组网以增强全球网络覆盖能力。作为SpaceX批量发射部署的星链卫星之一,它采用了星链标准卫星平台设计,参与提供宽带互联网通信服务。目前这类卫星主要服务于全球多个地区的互联网接入需求,是星链大规模星座组网进程中的一颗在轨单元。

基本信息
目录编号:
69162
目录名称:
STARLINK-36286
国际标识:
2026-111Q
轨道中心:
EARTH
卫星名称:
星链-36286
卫星全名:
星链-36286(STARLINK-36286)
卫星状态:
在轨 (已飞行115 天)
发射日期:
2026-05-21 UTC
国别 :
美国 (US)
星等 :
--
该卫星已列入 空间交会检测服务 Space Conjunction Data Service (SCDS) ,当前飞行风险评估等级: 高风险
轨道信息
数据来源 国际轨道数据
星历时间: 2026-09-13T04:20:57+0800
14小时前
查看轨道信息
半长轴: 6840.895km
偏心率: 0.0001375
轨道倾角: 53.156°
近地点辐角 89.309°
升交点赤经 101.518°
平近点角 270.807°
近地点: 461.817km
远地点: 463.699km
周期: 93.849分钟
每日圈数: 15.343818
详细信息
固有亮度:
5
最大亮度:
2.5
卫星平台:
Starlink V1.0
覆盖范围:
全球
运营商:
太空探索技术公司
运营商所在国:
美国
制造商(研发单位):
太空探索技术公司
制造商所在国:
美国
使用方式:
暂无
卫星简介
Starlink 计划是 SpaceX 推出的全球卫星互联网项目,通过发射低轨道卫星,为全球尤其是偏远地区提供高速、低延迟的互联网服务。自 2019 年起,Starlink 已部署数千颗卫星,旨在缩小全球数字鸿沟,推动互联网普及。该项目还为军事、航空等行业提供通信支持,带来广泛经济效益。
2D轨道图
3D轨道图
轨道高度分析图
轨道倾角分析图
轨道综合分析图
查看轨道综合分析图
交会数据列表
事件ID 空间交会对象 最接近时刻(TCA) 交会距离 交会风险概率(CRP) 交会风险指数(CRI) 操作
CDM_260915-055306-121506-916221
2026-09-15T
05:53:31+0000
0.429 km
远距离
1.847359E-4 高风险 0.8
CDM_260914-211706-121506-916221
2026-09-14T
21:17:39+0000
0.516 km
远距离
1.201859E-4 高风险 0.77
CDM_260915-175006-026706-916221
2026-09-15T
17:50:14+0000
2.668 km
极远距离
1.394598E-6 低风险 0.38
CDM_260913-182305-230506-916221
2026-09-13T
18:23:15+0000
2.676 km
极远距离
1.335635E-6 低风险 0.38
CDM_260914-225106-121506-916221
2026-09-14T
22:51:27+0000
2.840 km
极远距离
9.268159E-7 极低风险 0.34
CDM_260915-155205-317506-916221
2026-09-15T
15:52:44+0000
2.754 km
极远距离
8.782159E-7 极低风险 0.34
CDM_260913-035105-110806-916222
2026-09-13T
03:51:20+0000
2.859 km
极远距离
8.625778E-7 极低风险 0.34
CDM_260913-130705-233606-916221
2026-09-13T
13:07:01+0000
2.562 km
极远距离
6.787773E-7 极低风险 0.32
与全量物体交会距离演化趋势
与全量物体交会风险概率演化趋势